COSMOS 1640

Satellite information

Favourite Embed

Satellite Type and Status

PAYLOADIN ORBIT

Key statistics

Satellite COSMOS 1640 at a glance.

Uptime

14781

Days in orbit

Revolutions

≈ 12.5

Per day

Orbit

LEO

Low Earth Orbit

Inclination

74.1

Latest

Satellite identification and parameters

Extended collection of information and parameters for COSMOS 1640.

Object identification

Identified? True

Debris? False

Object name: COSMOS 1640

International designator: 1985-023F

Object number (NORAD): 15622

Object ID (CCSDS): 15622

Country: COMMONWEALTH OF INDEPENDENT STATES (CIS)

Current information (Y/N): Y

RCS size: MEDIUM

Orbital parameters

Period: 114.939 minutes

Inclination: 74.0532 deg

SMA: 7830.797 km

Apoapsis: 1478.675 km

Periapsis: 1426.649 km

RAAN: 278.8915 deg

Eccentricy: 0.00332192

Argument of periapsis: 60.0924 deg

Mean anomaly: 113.9344 deg

Mean motion: 12.52834803 rev/day

Mean motion (dot): 0.0000001 rev/day2

B* drag term: 0.00016334663 1/REarth

Two-line elements (TLE)

Creation date: Sept. 7, 2025, 3:09 a.m.

Reference frame: TEME

Reference center: EARTH

Epoch: Sept. 6, 2025, 8:35 p.m. UTC

TLE line 0: 0 COSMOS 1640

TLE line 1: 1 15622U 85023F 25249.85777637 .00000010 00000-0 16335-3 0 9998

TLE line 2: 2 15622 74.0532 278.8915 0033219 60.0924 113.9344 12.52834803850833

Live tracking on map

Real-time ground track for satellite COSMOS 1640.

In-orbit conjunctions

There are no conjunctions computed for COSMOS 1640, at the moment. Check back to stay up to date, as we update our databases every day.

Go to all conjunctions

Associated space launch

Military communications satellites

COSMOS 1640 was lifted into orbit during the mission ‘Kosmos-3M | Strela-1M 289-296’, on board a Kosmos-3M space rocket.

The launch took place on March 21, 1985, 12:08 a.m. from 132/2.

For more information about the launch, click the button.

Launch to space Kosmos-3M | Strela-1M 289-296
Kosmos-3M | Strela-1M 289-296

Agency: N/A

Status: Launch Successful

Launch date: March 21, 1985, 12:08 a.m. UTC

Rocket: Kosmos-3M

Launch pad: 132/2

Location: Plesetsk Cosmodrome, Russian Federation

...

Latest news about this satellite

There are no fresh news available about this satellite. Check back as we update our databases every day.


Newsletter sign-up

Weekly statistics, charts and insights to help you stay on top of the space industry.